Find the Weather for any City, State or Zip Code, or Country:


Mobile Weather


Questions? Comments?
Contact Greg


Winchester Trails
Subdivision Website


Current Maps

Tropical (Hurricane)

Temperature

Heat Index

Windchill

Humidity

Radar

Dew Point

Wind

Visibility

Visible Satellite

Satellite

Fronts

Jet Stream

Flight Rules


Forecast Maps

Temperature Forecast

Maximum Temperature Forecast

Minimum Temperature Forecast

Dewpoint Forecast

Prevalent Weather

12Hr Probability of Precip.

Sky Cover


Health Maps

Houston Pollen/Mold Report

UV Forecast

Air Quality

Peak Air Quality Index


Aviation & NWS
Weather

NOAA Aviation Weather

Air Sports Net
Aviation Weather


SkyVector

Wunderground GA Weather

NWS Houston/Galveston

National Weather Service (main page)

National Hurricane Center


Miscellaneous

NOAA Historical Hurricane Tracks

Wunderground
Hurricane Archive


Harris Co. Flood Warning System

Harris Co. Storm Risk Calculator

U.S. Drought Monitor

TX Lake/Reservoir Data & Levels

Eric 'SciGuy' Berger Weather Blog

Dr. Jeff Masters Weather Blog

Houston Traffic

TxDOT Highway Conditions

Houston Electricity Outage Tracker

Houston Bayport Cruise Terminal Webcam

Galveston CruiseCam


This Station's Data

NOAA-Style Reports

Weather Detail

Daily Tabular Data


This Station's Position:
Lat. 29° 54' 14.18" N
Lon. 95° 34' 24.45" W
Elevation 112 ft (34.1 m)


Visit this station's partner in Cypress, 8sm west of here!


Weather Instruments:


Vantage Pro 2


Current Weather Conditions

This page refreshes automatically every 5 minutes and is best viewed at 1024x768 or higher resolution.
Powered by Ambient Weather Virtual Weather Station V15.00

Page last refreshed Sat April 25, 2015 at 2:43 pm CDT (UTC -5) (2015-04-25 19:43 UTC/GMT/Zulu)

Metric & Other Conversions for Current Observations
Current Temp30.8 °CHigh Temp30.9 °CLow Temp18.7 °C
Current Dew Point21 °CHeat Index33.4 °CWind Chill30.8 °C
Barometer1007.83 mbarBarometer755.9 mmHgBarometer14.62 psi
Density Altitude:  2151 ft (655.6 m)Pressure Altitude:  264 ft (80.5 m)
Barometer readings for a Standard Day (59.0 °F/15.0 °C @ sea level):  29.92" Hg, 1013.25 mbar, 757.83 mmHg, 14.70 psi


No Warnings, Watches, or Advisories for Harris and surrounding counties.


Local Radar Other Radar Graphics Local Satellite
Click for larger image WunderMap®

High Definition Radar (KHOU)

Regional Radar
Click for larger image
Radar & Satellite Graphics by Weather Underground




National Weather Service Forecast for: Jersey Village TX
Issued by: National Weather Service Houston, TX
Updated: 1:20 pm CDT Apr 25, 2015
 
This
Afternoon

Mostly Sunny
Mostly
Sunny
Tonight

Partly Cloudy
Partly
Cloudy
Sunday

Slight Chc T-Storms. Chance for Measurable Precipitation 20%
Slight Chc
T-Storms
Sunday
Night

Chance T-Storms. Chance for Measurable Precipitation 30%
Chance
T-Storms
Monday

T-Storms Likely. Chance for Measurable Precipitation 60%
T-Storms
Likely
Monday
Night

Chance T-Storms. Chance for Measurable Precipitation 40%
Chance
T-Storms
Tuesday

Slight Chc T-Storms. Chance for Measurable Precipitation 20%
Slight Chc
T-Storms
Tuesday
Night

Mostly Cloudy
Mostly
Cloudy
Wednesday

Mostly Sunny
Mostly
Sunny
Hi 87 °F Lo 70 °F Hi 88 °F Lo 71 °F Hi 82 °F Lo 66 °F Hi 75 °F Lo 55 °F Hi 74 °F

Hazardous Weather Outlook
 

This Afternoon
 
Mostly sunny, with a high near 87. West wind around 5 mph.
Tonight
 
Partly cloudy, with a low around 70. South wind around 5 mph.
Sunday
 
A 20 percent chance of showers and thunderstorms. Mostly sunny, with a high near 88. Light south wind increasing to 5 to 10 mph in the morning.
Sunday Night
 
A 30 percent chance of showers and thunderstorms. Mostly cloudy, with a low around 71. Southeast wind 5 to 10 mph.
Monday
 
Showers and thunderstorms likely. Mostly cloudy, with a high near 82. Northeast wind 5 to 10 mph. Chance of precipitation is 60%.
Monday Night
 
A 40 percent chance of showers and thunderstorms. Mostly cloudy, with a low around 66.
Tuesday
 
A 20 percent chance of showers and thunderstorms. Partly sunny, with a high near 75.
Tuesday Night
 
Mostly cloudy, with a low around 55.
Wednesday
 
Mostly sunny, with a high near 74.
Wednesday Night
 
Mostly clear, with a low around 55.
Thursday
 
Sunny, with a high near 78.
Thursday Night
 
Mostly clear, with a low around 59.
Friday
 
Mostly sunny, with a high near 80.

 

Forecast from NOAA-NWS for Jersey Village TX.

Follow this link for a current verbose area forecast discussion from the NWS.
Forecast Script by Saratoga Weather | Animated icons by Meteo Treviglio


Radar and Satellite Imagery


US Current Fronts w/Radar

Southcentral Infrared Satellite

US Jet Stream

Visible Satellite
Click to go to WUnderground
Sea Surface Temp & Tropical System Map
Map Graphics by Weather Underground


Rainfall Information
Yesterday's Rain: 0 in
Last Rainfall:
Surrounding Area Rainfall Data
NOAA Avg. Rainfall For: Month to Date
(1971-2000)
Month to Date
(1981-2010)
Year to Date
(1971-2000)
Year to Date
(1981-2010)
Jersey Village: 2.72 in
(3.23 in)
2.71 in
(3.24 in)
13.43 in
(0.43 in)
13.47 in
(0.39 in)
Intercontinental (KIAH) 2.92 in 2.67 in 12.94 in 12.66 in
Hobby (KHOU) 2.83 in 2.62 in 13.28 in 12.9 in
NOTE:  The numbers in parenthesis under the Jersey Village data above indicate how far ahead (green) or behind (red) this station's rain total is compared to the NOAA 1971-2000 and 1981-2010 climate normals data for today's date (Apr 25).


Other Current Regional Observations (METARs)

(Ordered by straight-line statute mile distance from this weather station)

A Few More Observations/METARs of Interest to Greg


Weather Almanac

NOAA/NWS Daily Historical Weather Browser
Major SE Texas Weather Events

Records and Normals for Apr 25
Temperature Forecast Normal Record
High 88° 78° 90°
(2006)
Low 71°
59°
50°
(2001)
Highs & Lows Observed at This Station
  Today Yesterday For 4/2015 For 2015
High Temp 87.7°F at 2:32pm 87.0°F at 12:43pm 89.2°F on 4/23/15 89.2°F on 4/23/15
Low Temp 65.7°F at 7:46am 72.1°F at 5:18am 56.9°F on 4/21/15 28.8°F on 1/8/15
High Dew Point 73.7°F at 12:14am 76.1°F at 12:38pm 76.1°F on 4/24/15 76.1°F on 4/24/15
Low Dew Point 61.9°F at 7:41am 69.2°F at 5:05am 41.7°F on 4/20/15 11.2°F on 1/8/15
High Humidity 94% at 10:36am 92% at 5:31am 95% on 4/18/15 98% on 1/2/15
Low Humidity 55% at 2:10pm 67% at 5:28pm 41% on 4/20/15 24% on 1/18/15
High Heat Index 92.8°F at 2:29pm 97.1°F at 12:45pm 98.9°F on 4/23/15 98.9°F on 4/23/15
High Barometer 29.76in at 7:59am 29.80in at 9:59am 30.17in on 4/4/15 30.57in on 1/8/15
Low Barometer 29.58in at 5:14am 29.59in at 7:59pm 29.58in on 4/25/15 29.58in on 4/25/15
High Wind Speed 18mph at 7:20am 13mph at 11:50pm 20mph on 4/20/15 21mph on 1/22/15
High Wind Gust 18mph at 7:20am 17mph at 11:50pm 20mph on 4/20/15 21mph on 1/22/15
Low Wind Chill 65.7°F at 7:46am 72.1°F at 5:18am 56.3°F on 4/20/15 20.6°F on 1/8/15

Sun & Moon
Sunrise:  6:44am Sunset:  7:54pm Moon Phase:
46%
Moonrise:  12:48pm Moonset:  1:38am
Star Chart...

 

Local Trend Graphs


MesoNet Local Weather Exchange® Network

Station ID

City 
(Click for Map Location)

Neighborhood 
(Click for History)
Last Update
(Date & Time)

Temp
 (°)

Dew
Point (°)
Humidity 
(%)
Wind 
(mph)
From
the
Gust
(mph) 
Pressure (in) Hourly
Rain (in)
KTXHOUST61 Houston Willow Point 04/25 14:39:16 89.2 36.0 15 4 SSW 5 29.65 0.00
KTXHOUST186 Houston Winchester Trails 04/25 14:39:54 87.4 69.0 55 0 West 9 29.76 0.00
KTXHOUST483 Houston Windfern Forest 04/25 14:36:00 87.1 72.0 61 0 North 0 29.86 0.00
KTXHOUST213 Houston 18220 Tomball Parkway 04/25 14:22:41 86.5 67.0 52 12 NE 12 29.57 0.00
KTXHOUST178 Houston Schroeder Oaks Village 04/25 11:51:12 77.5 74.0 88 5 SSW 9 29.72 0.00
KTXHOUST291 Houston Steeplechase 04/25 14:39:57 87.4 65.0 48 4 West 5 29.91 0.00
KTXHOUST216 Houston Cutten Green 04/25 14:38:54 87.3 71.0 59 0 SW 0 29.71 0.00
KTXHOUST232 Houston Rolling Fork 04/25 14:39:59 87.1 71.0 59 1 South 5 29.72 0.00
KTXHOUST349 Houston Champions Crossing 04/25 14:36:53 89.4 68.0 50 6 SW 0 29.54 0.00
KTXCYPRE91 Cypress Mill Ridge North 04/25 14:35:42 81.5 72.0 73 0

North 0 29.76 0.00
KTXHOUST407 Houston Northside 04/25 14:35:20 88.3 69.0 52 0 North 0 29.83 0.00
KTXHOUST218 Houston Woodland Trails West 04/25 14:39:26 88.9 70.0 54 5 SW 10 29.72 0.00
KTXHOUST466 Houston Mandolin Village 04/25 14:31:08 88.2 74.0 63 2 ESE 0 29.46 0.00
KTXHOUST170 Houston Champions Park 04/25 14:33:40 88.8 71.0 55 0 West 8 29.72 0.00
KTXHOUST497 Houston NCI Building Systems 04/25 14:28:55 93.6 68.0 44 8 SSE 0 29.47 0.00
KTXTEXAS12 Texas FM 1960 04/25 14:39:21 88.3 70.0 55 5 ESE 0 29.67 0.00
KTXHOUST342 Houston Lakewood Forest at Cypresswood 04/25 12:59:50 79.9 71.0 75 0 South 2 29.47 0.00
KTXHOUST233 Houston Woods of Wimbledon 04/25 14:40:00 92.8 74.0 54 0 West 0 29.74 0.00
KTXHOUST352 Houston Villa Toscana 04/25 14:39:59 87.5 67.0 51 1 South 4 29.69 0.00
KTXHOUST260 Houston Villages at Lakepointe 04/25 14:39:52 93.7 66.0 40 8 SSW 9 29.72 0.00
KTXHOUST169 Houston Lakewood Forest 04/25 14:25:05 84.7 70.0 62 0 South 1 29.74 0.00
KTXHOUST472 Houston Hearthstone 04/25 14:35:50 89.4 74.0 59 0 North 0 29.80 0.00
KTXHOUST456 Houston Woods Of Wimbledon 04/25 14:35:42 84.0 71.0 64 0 North 0 29.59 0.00
KTXCYPRE105 Cypress Bonaire 04/25 14:38:54 90.5 70.0 52 2 NNW 0 29.72 0.00
KTXSPRIN88 Spring Champions Woods 04/25 14:32:35 87.4 74.0 64 3 ENE 0 29.44 0.00
KTXHOUST493 Houston Lakes on Eldridge North 04/25 14:36:23 88.0 79.0 74 6 SE 0 29.70 0.00
KTXCYPRE4 Cypress Moore Weather 04/25 14:35:19 85.7 68.0 56 1 South 1 29.72 0.00
KTXCYPRE42 Cypress Great Oaks 04/25 14:35:27 87.3 74.0 64 2 SSW 4 29.73 0.00
KTXCYPRE79 Cypress Cypress Chase 04/25 14:39:57 85.6 67.0 54 0 WSW 2 29.73 0.00
KTXTEXAS22 Texas Champion Forest 04/25 14:39:44 88.5 66.0 47 1 ENE 2 29.70 0.00
KTXHOUST271 Houston Middlegate Village 04/25 14:39:36 89.2 69.0 51 3 South 5 29.74 0.00
KTXHOUST506 Houston Lakes On Eldridge North 04/25 14:36:20 89.1 76.0 66 0 North 0 29.72 0.00
KTXCYPRE83 Cypress Wincrest Falls 04/25 14:35:29 84.6 60.0 43 0 North 0 29.63 0.00
KDWH Houston Hooks Official Station 04/25 13:53:00 84.0 67.0 56 8 WSW --- 29.74 ---
KIAH Houston Intercontinental Official Station 04/25 13:53:00 85.0 67.0 55 7 SW --- 29.74 ---
KMCJ Houston / Dunn Helistop Official Station 04/25 14:15:00 86.0 68.0 55 6 SSW --- 29.74 ---
KSGR Houston Hull Official Station 04/25 13:53:00 83.0 71.0 67 8 SSW --- 29.77 ---
KTXCYPRE54 Cypress Canyon Lakes West 04/25 14:39:54 88.0 72.0 60 6 SSW 13 29.82 0.00
KTXCYPRE93 Cypress Canyon Lakes West 04/25 14:26:08 83.5 63.0 53 0 North 0 29.61 0.00
KTXCYPRE107 Cypress Feron Lane 84.0 84.0 66.0 54 0 North 0 29.61 0.00